EN

Hourly Weather Prigorodnyy

Today, 30 September, Wednesday

Time Temperature Precipitation Wind Pressure Humidity
00:00 +12°C° 0 mm 3 mps 759 mmHg 57%
01:00 +12°C° 0 mm 3 mps 759 mmHg 59%
02:00 +12°C° 0 mm 3 mps 759 mmHg 62%
03:00 +11°C° 0 mm 4 mps 759 mmHg 65%
04:00 +11°C° 0 mm 4 mps 759 mmHg 63%
05:00 +11°C° 0 mm 4 mps 759 mmHg 61%
06:00 +11°C° 0 mm 3 mps 759 mmHg 59%
07:00 +12°C° 0 mm 4 mps 759 mmHg 55%
08:00 +13°C° 0 mm 4 mps 759 mmHg 52%
09:00 +14°C° 0 mm 5 mps 759 mmHg 48%
10:00 +15°C° 0 mm 5 mps 759 mmHg 45%
11:00 +17°C° 0 mm 5 mps 759 mmHg 42%
12:00 +19°C° 0 mm 5 mps 759 mmHg 38%
13:00 +20°C° 0 mm 5 mps 758 mmHg 38%
14:00 +20°C° 0 mm 5 mps 758 mmHg 38%
15:00 +20°C° 0 mm 5 mps 758 mmHg 37%
16:00 +19°C° 0 mm 5 mps 758 mmHg 41%
17:00 +17°C° 0 mm 5 mps 758 mmHg 44%
18:00 +17°C° 0 mm 4 mps 758 mmHg 48%
19:00 +15°C° 0 mm 4 mps 758 mmHg 48%
20:00 +15°C° 0 mm 4 mps 758 mmHg 48%
21:00 +15°C° 0 mm 4 mps 759 mmHg 49%
22:00 +14°C° 0 mm 4 mps 759 mmHg 50%
23:00 +13°C° 0 mm 4 mps 759 mmHg 51%

Tomorrow, 1 October, Thursday

Time Temperature Precipitation Wind Pressure Humidity
00:00 +13°C° 0 mm 3 mps 759 mmHg 52%
01:00 +13°C° 0 mm 3 mps 759 mmHg 52%
02:00 +12°C° 0 mm 4 mps 759 mmHg 53%
03:00 +12°C° 0 mm 4 mps 759 mmHg 53%
04:00 +12°C° 0 mm 3 mps 759 mmHg 54%
05:00 +11°C° 0 mm 3 mps 759 mmHg 55%
06:00 +11°C° 0 mm 3 mps 759 mmHg 55%
07:00 +12°C° 0 mm 4 mps 759 mmHg 52%
08:00 +13°C° 0 mm 4 mps 759 mmHg 49%
09:00 +15°C° 0 mm 4 mps 760 mmHg 45%
10:00 +16°C° 0 mm 5 mps 760 mmHg 41%
11:00 +19°C° 0 mm 5 mps 760 mmHg 36%
12:00 +20°C° 0 mm 6 mps 760 mmHg 32%
13:00 +20°C° 0 mm 5 mps 759 mmHg 31%
14:00 +21°C° 0 mm 5 mps 759 mmHg 31%
15:00 +21°C° 0 mm 5 mps 759 mmHg 31%
16:00 +19°C° 0 mm 5 mps 759 mmHg 35%
17:00 +18°C° 0 mm 4 mps 759 mmHg 39%
18:00 +15°C° 0 mm 4 mps 759 mmHg 43%
19:00 +14°C° 0 mm 3 mps 759 mmHg 44%
20:00 +14°C° 0 mm 3 mps 759 mmHg 45%
21:00 +13°C° 0 mm 3 mps 759 mmHg 46%
22:00 +13°C° 0 mm 3 mps 759 mmHg 47%
23:00 +12°C° 0 mm 3 mps 759 mmHg 49%

Day after tomorrow, 2 October, Friday

Time Temperature Precipitation Wind Pressure Humidity
00:00 +12°C° 0 mm 3 mps 759 mmHg 51%
01:00 +12°C° 0 mm 3 mps 760 mmHg 53%
02:00 +11°C° 0 mm 3 mps 760 mmHg 55%
03:00 +11°C° 0 mm 3 mps 760 mmHg 58%
04:00 +11°C° 0 mm 3 mps 760 mmHg 60%
05:00 +11°C° 0 mm 3 mps 760 mmHg 63%
06:00 +11°C° 0 mm 3 mps 760 mmHg 66%
07:00 +12°C° 0 mm 3 mps 760 mmHg 64%
08:00 +13°C° 0 mm 4 mps 760 mmHg 62%
09:00 +14°C° 0 mm 4 mps 760 mmHg 60%
10:00 +17°C° 0 mm 4 mps 760 mmHg 56%
11:00 +17°C° 0 mm 5 mps 760 mmHg 52%
12:00 +19°C° 0 mm 5 mps 760 mmHg 48%
13:00 +20°C° 0 mm 5 mps 760 mmHg 47%
14:00 +20°C° 0 mm 5 mps 760 mmHg 47%
15:00 +20°C° 0 mm 5 mps 759 mmHg 46%
16:00 +19°C° 0 mm 4 mps 759 mmHg 50%
17:00 +17°C° 0 mm 3 mps 759 mmHg 54%
18:00 +16°C° 0 mm 3 mps 759 mmHg 59%
19:00 +14°C° 0 mm 3 mps 760 mmHg 60%
20:00 +14°C° 0 mm 3 mps 760 mmHg 62%
21:00 +13°C° 0 mm 3 mps 760 mmHg 64%
22:00 +13°C° 0 mm 3 mps 760 mmHg 64%
23:00 +12°C° 0 mm 3 mps 760 mmHg 65%

3 October, Saturday

Time Temperature Precipitation Wind Pressure Humidity
00:00 +12°C° 0 mm 3 mps 760 mmHg 66%
01:00 +11°C° 0 mm 3 mps 760 mmHg 66%
02:00 +11°C° 0 mm 3 mps 760 mmHg 66%
03:00 +11°C° 0 mm 3 mps 760 mmHg 66%
04:00 +11°C° 0 mm 3 mps 760 mmHg 65%
05:00 +10°C° 0 mm 3 mps 760 mmHg 64%
06:00 +10°C° 0 mm 3 mps 760 mmHg 63%
07:00 +12°C° 0 mm 3 mps 760 mmHg 59%
08:00 +13°C° 0 mm 3 mps 760 mmHg 55%
09:00 +14°C° 0 mm 3 mps 760 mmHg 51%
10:00 +17°C° 0 mm 4 mps 761 mmHg 47%
11:00 +18°C° 0 mm 4 mps 761 mmHg 43%
12:00 +20°C° 0 mm 4 mps 761 mmHg 39%
13:00 +20°C° 0 mm 4 mps 761 mmHg 39%
14:00 +20°C° 0 mm 4 mps 760 mmHg 38%
15:00 +20°C° 0 mm 4 mps 760 mmHg 37%
16:00 +19°C° 0 mm 3 mps 760 mmHg 42%
17:00 +17°C° 0 mm 3 mps 760 mmHg 46%
18:00 +15°C° 0 mm 2 mps 760 mmHg 51%
19:00 +14°C° 0 mm 3 mps 760 mmHg 52%
20:00 +13°C° 0 mm 3 mps 760 mmHg 54%
21:00 +12°C° 0 mm 3 mps 761 mmHg 55%
22:00 +13°C° 0 mm 2 mps 761 mmHg 56%
23:00 +13°C° 0 mm 2 mps 761 mmHg 56%

4 October, Sunday

Time Temperature Precipitation Wind Pressure Humidity
00:00 +13°C° 0 mm 2 mps 761 mmHg 56%
01:00 +13°C° 0 mm 2 mps 761 mmHg 57%
02:00 +12°C° 0 mm 2 mps 761 mmHg 58%
03:00 +12°C° 0 mm 2 mps 761 mmHg 58%
04:00 +12°C° 0 mm 2 mps 761 mmHg 59%
05:00 +12°C° 0 mm 2 mps 761 mmHg 60%
06:00 +12°C° 0 mm 2 mps 761 mmHg 61%
07:00 +13°C° 0 mm 2 mps 761 mmHg 60%
08:00 +14°C° 0 mm 2 mps 761 mmHg 58%
09:00 +15°C° 0 mm 2 mps 761 mmHg 57%
10:00 +16°C° 0 mm 2 mps 761 mmHg 53%
11:00 +17°C° 0 mm 3 mps 761 mmHg 50%
12:00 +19°C° 0 mm 3 mps 761 mmHg 47%
13:00 +19°C° 0 mm 3 mps 761 mmHg 46%
14:00 +19°C° 0 mm 3 mps 761 mmHg 46%
15:00 +19°C° 0 mm 3 mps 761 mmHg 45%
16:00 +18°C° 0 mm 3 mps 761 mmHg 50%
17:00 +16°C° 0 mm 2 mps 761 mmHg 56%
18:00 +15°C° 0 mm 2 mps 761 mmHg 62%
19:00 +14°C° 0 mm 2 mps 761 mmHg 64%
20:00 +13°C° 0 mm 2 mps 761 mmHg 66%
21:00 +13°C° 0 mm 2 mps 761 mmHg 68%
22:00 +12°C° 0 mm 2 mps 761 mmHg 69%
23:00 +12°C° 0 mm 2 mps 762 mmHg 70%

5 October, Monday

Time Temperature Precipitation Wind Pressure Humidity
00:00 +12°C° 0 mm 2 mps 762 mmHg 71%
01:00 +12°C° 0 mm 2 mps 762 mmHg 72%
02:00 +10°C° 0 mm 2 mps 761 mmHg 72%
03:00 +10°C° 0 mm 2 mps 761 mmHg 73%
04:00 +10°C° 0 mm 2 mps 762 mmHg 73%
05:00 +10°C° 0 mm 2 mps 762 mmHg 74%
06:00 +10°C° 0 mm 2 mps 762 mmHg 74%
07:00 +12°C° 0 mm 2 mps 762 mmHg 71%
08:00 +12°C° 0 mm 3 mps 762 mmHg 67%
09:00 +13°C° 0 mm 3 mps 762 mmHg 63%
10:00 +16°C° 0 mm 3 mps 762 mmHg 58%
11:00 +17°C° 0 mm 3 mps 762 mmHg 53%
12:00 +18°C° 0 mm 3 mps 761 mmHg 49%
13:00 +19°C° 0 mm 3 mps 761 mmHg 47%
14:00 +19°C° 0 mm 3 mps 761 mmHg 45%
15:00 +19°C° 0 mm 3 mps 761 mmHg 42%
16:00 +18°C° 0 mm 3 mps 761 mmHg 47%
17:00 +17°C° 0 mm 3 mps 760 mmHg 52%
18:00 +15°C° 0 mm 2 mps 760 mmHg 57%
19:00 +15°C° 0 mm 2 mps 760 mmHg 58%
20:00 +14°C° 0 mm 2 mps 760 mmHg 59%
21:00 +13°C° 0 mm 3 mps 760 mmHg 60%
22:00 +13°C° 0 mm 3 mps 760 mmHg 60%
23:00 +13°C° 0 mm 3 mps 760 mmHg 60%
Show more

We Need Your Consent

Meteoprog and our Service Providers may store and access personal data such as cookies, device identifiers or other similar technologies on your device and process such data to personalise content and ads, as well as provide social media features and to analyse the traffic.

  • Store and/or access information on your device

    Cookies, device identifiers or other information can be stored or accessed on your device for the purposes indicated above.

  • Personalised ads and content, ad and content measurement, audience insights, and products development

    Ads and content can be personalised based on a profile. More data can be added to better personalise ads and content. Ad and content performance can be measured. Insights about the audience who saw the ads and content can be derived. Such data can be used to develop or improve user’s experience, systems and software.

By clicking ‘I Agree’ you will allow the use of indicated cookies, device identifiers, web beacons or other similar technologies. Your settings can be changed in the browser on your device.

For certain purposes, legitimate interests may be relied on, rather than consent. You can read more about this in our Privacy and Cookie Policy.